When you browse on this site, cookies collect data to enhance your experience and personalize the content and advertising you see.
Visit our Privacy Policy to learn more. By continuing to use the site, you agree to this use of cookies and data.
  • In Latvia
  • List of Countries
  • For 7 days
  • Water Temperature
  • Satellite Maps
  • Weather Map
  • Weather Widgets
  • user-avatar
    Login

    Hourly Weather Novoe Malinovo

    Today, 21 April, Sunday

    Time Temperature Precipitation Wind Pressure Humidity
    00:00 +3°C° 0 mm 1 mps 750 mmHg 92%
    01:00 +3°C° 0 mm 1 mps 751 mmHg 94%
    02:00 +2°C° 0 mm 0 mps 751 mmHg 95%
    03:00 +3°C° 0 mm 1 mps 751 mmHg 95%
    04:00 +2°C° 0 mm 1 mps 751 mmHg 96%
    05:00 +2°C° 0 mm 1 mps 751 mmHg 96%
    06:00 +4°C° 0 mm 1 mps 751 mmHg 90%
    07:00 +6°C° 0 mm 1 mps 751 mmHg 84%
    08:00 +7°C° 0 mm 2 mps 752 mmHg 78%
    09:00 +8°C° 0 mm 2 mps 752 mmHg 70%
    10:00 +10°C° 0 mm 2 mps 752 mmHg 63%
    11:00 +13°C° 0 mm 2 mps 752 mmHg 56%
    12:00 +13°C° 0 mm 2 mps 752 mmHg 54%
    13:00 +14°C° 0 mm 2 mps 751 mmHg 51%
    14:00 +15°C° 0 mm 2 mps 751 mmHg 48%
    15:00 +15°C° 0 mm 1 mps 751 mmHg 49%
    16:00 +15°C° 0 mm 1 mps 751 mmHg 50%
    17:00 +14°C° 0 mm 1 mps 751 mmHg 51%
    18:00 +13°C° 0 mm 1 mps 751 mmHg 57%
    19:00 +11°C° 0 mm 1 mps 751 mmHg 63%
    20:00 +9°C° 0 mm 1 mps 751 mmHg 69%
    21:00 +9°C° 0 mm 1 mps 752 mmHg 72%
    22:00 +7°C° 0 mm 0 mps 752 mmHg 74%
    23:00 +6°C° 0 mm 0 mps 752 mmHg 76%

    Tomorrow, 22 April, Monday

    Time Temperature Precipitation Wind Pressure Humidity
    00:00 +6°C° 0 mm 0 mps 752 mmHg 77%
    01:00 +5°C° 0 mm 0 mps 752 mmHg 77%
    02:00 +5°C° 0 mm 0 mps 753 mmHg 78%
    03:00 +5°C° 0 mm 0 mps 753 mmHg 77%
    04:00 +5°C° 0 mm 0 mps 753 mmHg 77%
    05:00 +5°C° 0 mm 0 mps 753 mmHg 76%
    06:00 +7°C° 0 mm 0 mps 753 mmHg 69%
    07:00 +10°C° 0 mm 1 mps 753 mmHg 61%
    08:00 +13°C° 0 mm 1 mps 753 mmHg 54%
    09:00 +14°C° 0 mm 1 mps 753 mmHg 49%
    10:00 +16°C° 0 mm 1 mps 753 mmHg 44%
    11:00 +18°C° 0 mm 1 mps 753 mmHg 40%
    12:00 +18°C° 0 mm 1 mps 753 mmHg 40%
    13:00 +17°C° 0 mm 2 mps 753 mmHg 40%
    14:00 +17°C° 0 mm 2 mps 753 mmHg 40%
    15:00 +17°C° 0 mm 2 mps 753 mmHg 43%
    16:00 +16°C° 0 mm 2 mps 752 mmHg 45%
    17:00 +16°C° 0 mm 2 mps 752 mmHg 47%
    18:00 +14°C° 0 mm 2 mps 752 mmHg 53%
    19:00 +13°C° 0 mm 2 mps 752 mmHg 59%
    20:00 +10°C° 0 mm 2 mps 753 mmHg 65%
    21:00 +9°C° 0 mm 2 mps 753 mmHg 68%
    22:00 +9°C° 0 mm 2 mps 753 mmHg 70%
    23:00 +8°C° 0 mm 2 mps 753 mmHg 72%

    Day after tomorrow, 23 April, Tuesday

    Time Temperature Precipitation Wind Pressure Humidity
    00:00 +8°C° 0 mm 2 mps 753 mmHg 73%
    01:00 +7°C° 0 mm 2 mps 753 mmHg 74%
    02:00 +7°C° 0 mm 2 mps 754 mmHg 75%
    03:00 +7°C° 0 mm 2 mps 754 mmHg 75%
    04:00 +7°C° 0 mm 2 mps 754 mmHg 75%
    05:00 +7°C° 0 mm 2 mps 754 mmHg 74%
    06:00 +9°C° 0 mm 2 mps 754 mmHg 68%
    07:00 +12°C° 0 mm 2 mps 754 mmHg 61%
    08:00 +14°C° 0 mm 2 mps 755 mmHg 54%
    09:00 +14°C° 0 mm 3 mps 755 mmHg 49%
    10:00 +16°C° 0 mm 3 mps 754 mmHg 44%
    11:00 +18°C° 0 mm 3 mps 754 mmHg 38%
    12:00 +18°C° 0 mm 3 mps 754 mmHg 38%
    13:00 +18°C° 0 mm 3 mps 754 mmHg 37%
    14:00 +19°C° 0 mm 3 mps 754 mmHg 36%
    15:00 +18°C° 0 mm 3 mps 753 mmHg 38%
    16:00 +18°C° 0 mm 3 mps 753 mmHg 40%
    17:00 +18°C° 0 mm 2 mps 753 mmHg 42%
    18:00 +16°C° 0 mm 2 mps 753 mmHg 48%
    19:00 +14°C° 0 mm 2 mps 753 mmHg 54%
    20:00 +12°C° 0 mm 2 mps 753 mmHg 60%
    21:00 +10°C° 0 mm 2 mps 753 mmHg 62%
    22:00 +10°C° 0 mm 2 mps 753 mmHg 63%
    23:00 +9°C° 0 mm 2 mps 753 mmHg 65%

    24 April, Wednesday

    Time Temperature Precipitation Wind Pressure Humidity
    00:00 +9°C° 0 mm 2 mps 754 mmHg 66%
    01:00 +8°C° 0 mm 2 mps 754 mmHg 67%
    02:00 +8°C° 0 mm 2 mps 754 mmHg 68%
    03:00 +8°C° 0 mm 2 mps 754 mmHg 69%
    04:00 +7°C° 0 mm 2 mps 754 mmHg 70%
    05:00 +7°C° 0 mm 2 mps 754 mmHg 71%
    06:00 +9°C° 0 mm 2 mps 754 mmHg 64%
    07:00 +12°C° 0 mm 2 mps 754 mmHg 58%
    08:00 +14°C° 0 mm 2 mps 755 mmHg 52%
    09:00 +16°C° 0 mm 2 mps 754 mmHg 47%
    10:00 +17°C° 0 mm 2 mps 754 mmHg 41%
    11:00 +19°C° 0 mm 2 mps 754 mmHg 36%
    12:00 +19°C° 0 mm 2 mps 754 mmHg 35%
    13:00 +20°C° 0 mm 2 mps 754 mmHg 34%
    14:00 +20°C° 0 mm 2 mps 754 mmHg 33%
    15:00 +20°C° 0 mm 2 mps 753 mmHg 35%
    16:00 +21°C° 0 mm 1 mps 753 mmHg 37%
    17:00 +20°C° 0 mm 1 mps 753 mmHg 39%
    18:00 +18°C° 0 mm 1 mps 753 mmHg 45%
    19:00 +14°C° 0 mm 0 mps 753 mmHg 51%
    20:00 +12°C° 0 mm 0 mps 753 mmHg 56%
    21:00 +11°C° 0 mm 0 mps 753 mmHg 58%
    22:00 +11°C° 0 mm 0 mps 753 mmHg 60%
    23:00 +10°C° 0 mm 0 mps 753 mmHg 62%

    25 April, Thursday

    Time Temperature Precipitation Wind Pressure Humidity
    00:00 +10°C° 0 mm 0 mps 753 mmHg 63%
    01:00 +10°C° 0 mm 1 mps 754 mmHg 65%
    02:00 +10°C° 0 mm 1 mps 754 mmHg 66%
    03:00 +10°C° 0 mm 1 mps 754 mmHg 68%
    04:00 +9°C° 0 mm 1 mps 754 mmHg 69%
    05:00 +9°C° 0 mm 1 mps 754 mmHg 71%
    06:00 +11°C° 0 mm 1 mps 754 mmHg 64%
    07:00 +14°C° 0 mm 1 mps 754 mmHg 57%
    08:00 +16°C° 0 mm 1 mps 754 mmHg 51%
    09:00 +18°C° 0 mm 1 mps 753 mmHg 46%
    10:00 +18°C° 0 mm 2 mps 753 mmHg 41%
    11:00 +20°C° 0 mm 2 mps 753 mmHg 36%
    12:00 +20°C° 0 mm 2 mps 752 mmHg 35%
    13:00 +20°C° 0 mm 2 mps 752 mmHg 35%
    14:00 +21°C° 0 mm 2 mps 752 mmHg 34%
    15:00 +20°C° 0 mm 2 mps 751 mmHg 37%
    16:00 +20°C° 0 mm 2 mps 751 mmHg 39%
    17:00 +20°C° 0 mm 2 mps 750 mmHg 41%
    18:00 +18°C° 0 mm 2 mps 750 mmHg 47%
    19:00 +16°C° 0 mm 2 mps 750 mmHg 53%
    20:00 +14°C° 0 mm 1 mps 750 mmHg 60%
    21:00 +13°C° 0 mm 2 mps 750 mmHg 62%
    22:00 +12°C° 0 mm 2 mps 750 mmHg 64%
    23:00 +12°C° 0 mm 2 mps 750 mmHg 66%

    26 April, Friday

    Time Temperature Precipitation Wind Pressure Humidity
    00:00 +10°C° 0 mm 2 mps 749 mmHg 68%
    01:00 +10°C° 0 mm 2 mps 749 mmHg 70%
    02:00 +9°C° 0 mm 2 mps 749 mmHg 72%
    03:00 +9°C° 0 mm 2 mps 749 mmHg 73%
    04:00 +9°C° 0 mm 2 mps 748 mmHg 75%
    05:00 +9°C° 0 mm 2 mps 748 mmHg 76%
    06:00 +12°C° 0 mm 2 mps 748 mmHg 70%
    07:00 +13°C° 0 mm 3 mps 747 mmHg 63%
    08:00 +16°C° 0 mm 3 mps 747 mmHg 56%
    09:00 +18°C° 0 mm 3 mps 747 mmHg 50%
    10:00 +19°C° 0 mm 4 mps 747 mmHg 45%
    11:00 +21°C° 0 mm 4 mps 746 mmHg 39%
    12:00 +21°C° 0 mm 4 mps 746 mmHg 39%
    13:00 +22°C° 0 mm 4 mps 745 mmHg 39%
    14:00 +22°C° 0 mm 4 mps 745 mmHg 39%
    15:00 +22°C° 0 mm 3 mps 744 mmHg 41%
    16:00 +21°C° 0 mm 3 mps 744 mmHg 43%
    17:00 +21°C° 0 mm 3 mps 743 mmHg 46%
    18:00 +19°C° 0 mm 3 mps 743 mmHg 53%
    19:00 +17°C° 0 mm 2 mps 743 mmHg 60%
    20:00 +15°C° 0 mm 2 mps 743 mmHg 67%
    21:00 +15°C° 0 mm 2 mps 743 mmHg 68%
    22:00 +14°C° 0 mm 2 mps 743 mmHg 69%
    23:00 +14°C° 0 mm 2 mps 743 mmHg 70%
    Show more